Location: Haulchin
(50.3172°N, 3.4360°E)
Time: 10:27:02
(UTC+00:00)

H-2A R/B - Pass Details

Date: 23 May 2024
Orbit: 567 x 637 km, 98.4° (Epoch: 14 June)

Event Time Altitude Azimuth Distance (km) Brightness Sun altitude
Rises 00:30:53 0° 9° (N) 2,953 7.3 -18.3°
Reaches altitude 10° 00:33:11 10° 2° (N) 2,040 5.9 -18.2°
Maximum altitude 00:37:20 40° 293° (WNW) 945 3.0 -18.0°
Enters shadow 00:39:22 25° 241° (WSW) 1,292 3.3 -18.0°
